Location: Wiesbaden
(50.0830°N, 8.2500°E)
Time: 16:48:41
(UTC+01:00)

ISS - Pass Details

Date: 21 January 2020
Orbit: 415 x 421 km, 51.6° (Epoch: 18 January)

Event Time Altitude Azimuth Distance (km) Brightness Sun altitude
Rises 19:10:08 0° 215° (SW) 2,354 0.7 -20.2°
Reaches altitude 10° 19:12:27 10° 201° (SSW) 1,493 -0.6 -20.5°
Enters shadow 19:14:05 20° 177° (S) 1,024 -1.8 -20.8°
